Location: Bolzano
(46.5170°N, 11.3670°E)
Time: 15:51:01
(UTC+01:00)

ISS - Pass Details

Date: 07 December 2021
Orbit: 413 x 422 km, 51.6° (Epoch: 27 January)

Event Time Altitude Azimuth Distance (km) Brightness Sun altitude
Rises 18:37:46 0° 286° (WNW) 2,381 1.1 -21.5°
Reaches altitude 10° 18:40:28 10° 264° (W) 1,509 0.2 -22.0°
Maximum altitude 18:42:34 16° 225° (SW) 1,211 -0.8 -22.3°
Drops below altitude 10° 18:44:39 10° 187° (S) 1,497 -0.8 -22.7°
Enters shadow 18:45:24 - 178° (S) 1,708 -0.6 -22.8°
